THOR ABLESTAR DEB, 475

Orbit data source: Space-Track

THOR ABLESTAR DEB, 475 is space debris in LEO originally from a launch on Thu, 29 Jun 1961 UTC launched from the Air Force Eastern Test Range (AFETR). Debris objects in space refer to the collection of defunct objects orbiting the Earth. Examples of debris include non-operational satellites, rocket bodies, and fragments generated from explosions, collisions, or faulty payload assembly.

Loading next visibility...
Identifier
475, 1961-015FM
Orbit
LEO
Country
Flag of USUS
Related business
Manufacturer
Unknown
Mission
Spacecraft
Bus & Motor
Unknown
Mass
Unknown
Launch date (UTC)
1961-06-29 (65 years ago)
Launch vehicle
Unknown
Launch site
Air Force Eastern Test Range (AFETR)
Object type
Payload
Rocket body
Debris
Shape & HBR
Unknown shape, 0.1 m
Radar Cross Section
Small (<0.1 m²)

Expand to show TLE details & history
Last TLE update: 17 hours ago

TLE from 17 hours ago
0 THOR ABLESTAR DEB
1 00475U 61015FM  26119.53710401  .00001768  00000-0  74333-3 0  9994
2 00475  66.2175 146.0068 0130173 138.9988 222.0980 14.23706363280863
Epoch: 2026-04-29T12:53Z
TLE epoch observation values (Epoch: 2026-04-29T12:53:25.786Z)
Latitude
0.00002°
Longitude
95.15272°
Altitude
884.914 km
Speed
7.374 km/s
True Right ascension
09h 44m 01s
True Declination
0° 00' 00"
Sunlit
Object was in daylight at epoch
Visualization orbit readout
Latitude
Unknown
Longitude
Unknown
Altitude
Unknown
Speed
Unknown
Apparent Right ascension
Unknown
Apparent Declination
Unknown
Sunlit
N/A
Visualization observer readout
Local Sidereal Time
13:37:24
Azimuth
Unknown
Elevation
Unknown
Doppler factor
Unknown
Orbital elements
Apogee altitude
904.868 km
Perigee altitude
717.695 km
Semi-major axis
7,189.418 km
Eccentricity
0.01302
Inclination
66.2175°
RAAN
146.0068°
Arg. of periapsis
138.9988°
True anomaly
221.10997°
Mean anomaly
222.098°
Eccentric anomaly
221.60279°
Mean motion
3.56043 °/min
Orbital period
101.11 mins
BSTAR
0.00074333
Loading maneuver chart data...
Computing Atmospheric mass density...

Documentation

Showing up to 5 results
|